[[{"header":{"parameterUnit":"m.s-1","parameterCategory":1,"la1":30.2991,"la2":30.254,"lo1":-89.0895,"lo2":-89.0444,"dy":0.0017,"dx":0.0017,"nx":28,"ny":28,"refTime":"2024-05-24T09:00:00:Z","depth":0,"parameterNumber":2,"parameterNumberName":"U-component_of_WINDS"},"data":[0,0,0,0,0,0,0,0,0,0,0,0,0,0,0,0,0,0,0,0,0,0,0,0,0,0,0,0,0,0,0,0,0,0,0,0,0,0,0,0,0,0,0,0,0,0,0,0,0,0,0,0,0,0,0,0,0,0,-0.3127,-0.3127,0,-0.3104,-0.3103,-0.3103,-0.3061,-0.306,-0.3059,-0.3058,-0.3035,-0.3035,-0.3035,0,0,0,0,0,0,0,0,0,0,0,0,0,-0.3137,-0.3137,-0.3127,-0.3127,-0.3127,-0.3104,-0.3103,-0.3103,-0.3061,-0.306,-0.3059,-0.3058,-0.3035,-0.3035,-0.3035,0,0,0,0,0,0,0,0,0,0,0,0,0,-0.3125,-0.3137,-0.3127,-0.3103,-0.31,-0.3104,-0.3103,-0.3103,-0.3061,-0.306,-0.3059,-0.3057,-0.3035,-0.3035,-0.3035,-0.306,0,0,-0.3036,-0.3036,0,0,0,0,0,0,0,0,-0.3126,-0.3125,-0.3107,-0.3104,-0.3102,-0.3084,-0.3098,-0.3089,-0.3061,-0.3076,-0.3058,-0.3057,-0.3052,-0.3051,-0.3049,-0.3059,-0.3058,-0.3036,-0.3036,-0.3036,-0.3036,0,0,0,0,0,0,0,-0.3126,-0.3125,-0.3118,-0.3106,-0.3103,-0.3093,-0.309,-0.3096,-0.3071,-0.3075,-0.3071,-0.3069,-0.305,-0.3049,-0.3048,-0.3058,-0.3036,-0.3036,-0.3036,-0.3036,-0.3088,-0.3089,0,0,0,0,0,0,-0.3131,-0.3126,-0.3119,-0.3117,-0.3111,-0.3094,-0.3091,-0.3091,-0.3071,-0.3067,-0.307,-0.3067,-0.3049,-0.3048,-0.3047,-0.3075,-0.3036,-0.3036,-0.3036,-0.3086,-0.3088,-0.3089,0,0,0,0,0,0,-0.3131,-0.313,-0.3119,-0.3121,-0.3119,-0.3095,-0.3096,-0.3091,-0.3089,-0.3068,-0.3063,-0.3073,-0.3048,-0.3047,-0.3057,-0.3073,-0.3036,-0.3036,-0.3085,-0.3087,-0.3089,-0.3131,0,0,0,0,0,0,-0.3132,-0.3131,-0.314,-0.3121,-0.3119,-0.313,-0.3097,-0.3091,-0.309,-0.3086,-0.3069,-0.3065,-0.3047,-0.3057,-0.3058,-0.3073,-0.3036,-0.3083,-0.3086,-0.3088,-0.3128,-0.3134,-0.3139,0,0,0,0,0,-0.3132,-0.3153,-0.3141,-0.314,-0.313,-0.3131,-0.3129,-0.3108,-0.3091,-0.31,-0.3086,-0.3066,-0.3072,-0.3059,-0.3059,-0.3074,-0.3082,-0.3085,-0.3088,-0.3125,-0.3133,-0.3139,0,0,0,0,0,0,-0.3174,-0.315,-0.3136,-0.3151,-0.3144,-0.3124,-0.3134,-0.3117,-0.3113,-0.3109,-0.3083,-0.308,-0.3094,-0.3085,-0.3071,-0.3098,-0.3074,-0.3077,-0.3102,-0.3109,-0.3115,-0.3116,-0.3037,0,0,0,0,0,-0.3185,-0.3188,-0.3167,-0.3183,-0.3179,-0.3158,-0.3158,-0.3142,-0.3133,-0.3129,-0.3116,-0.3108,-0.3108,-0.3108,-0.3107,-0.3127,-0.3123,-0.3138,-0.3144,-0.3149,-0.3151,-0.316,-0.3167,-0.3099,-0.3099,-0.3099,0,0,-0.3208,-0.3195,-0.3199,-0.3191,-0.3183,-0.3186,-0.3155,-0.316,-0.3162,-0.313,-0.3138,-0.3129,-0.3118,-0.3133,-0.3139,-0.3127,-0.3169,-0.3152,-0.3156,-0.3156,-0.3164,-0.317,-0.3176,-0.3101,-0.31,-0.31,0,0,-0.3251,-0.3242,-0.3254,-0.3246,-0.3235,-0.322,-0.3223,-0.3206,-0.3198,-0.3207,-0.3182,-0.3185,-0.3186,-0.3179,-0.3176,-0.3218,-0.3198,-0.3218,-0.3247,-0.3256,-0.3262,-0.3266,-0.328,-0.3286,-0.3221,-0.3221,-0.3221,0,-0.3281,-0.3284,-0.3262,-0.3268,-0.3266,-0.3237,-0.3248,-0.3243,-0.3231,-0.323,-0.3216,-0.3217,-0.3208,-0.322,-0.3231,-0.323,-0.3232,-0.3219,-0.3263,-0.3267,-0.3271,-0.3284,-0.3289,-0.3224,-0.3223,-0.3223,-0.3223,0,-0.3321,-0.3325,-0.3336,-0.3325,-0.3324,-0.3333,-0.3312,-0.3314,-0.3299,-0.3286,-0.3295,-0.3283,-0.3279,-0.3281,-0.3267,-0.3292,-0.3285,-0.3268,-0.3242,-0.328,-0.3292,-0.3297,-0.3227,-0.3226,-0.3225,-0.3225,0,0,-0.3388,-0.3366,-0.337,-0.3365,-0.335,-0.3352,-0.3361,-0.3357,-0.3358,-0.3352,-0.3358,-0.336,-0.3344,-0.334,-0.3325,-0.3333,-0.3366,-0.3315,-0.3314,-0.3323,-0.3392,-0.3404,-0.341,-0.3354,-0.3355,-0.3355,-0.3393,0,-0.3427,-0.3439,-0.3419,-0.3436,-0.3438,-0.3411,-0.3419,-0.3411,-0.3399,-0.34,-0.3388,-0.3389,-0.3368,-0.3366,-0.3373,-0.336,-0.3379,-0.3358,-0.3358,-0.3359,-0.336,-0.3416,-0.3429,-0.3464,-0.3397,-0.3398,-0.3398,0,-0.3473,-0.3469,-0.3485,-0.347,-0.347,-0.3477,-0.3471,-0.3473,-0.3463,-0.3455,-0.3451,-0.3433,-0.344,-0.3418,-0.3427,-0.3413,-0.3412,-0.3406,-0.3407,-0.3405,-0.338,-0.3414,-0.3475,-0.348,-0.3406,-0.3405,-0.3405,0,-0.3519,-0.3517,-0.3527,-0.3524,-0.3506,-0.3511,-0.3504,-0.3494,-0.3492,-0.3488,-0.3487,-0.3484,-0.3482,-0.348,-0.3462,-0.3447,-0.3473,-0.3449,-0.3466,-0.3466,-0.3471,-0.347,-0.3531,-0.3473,-0.3473,-0.3473,-0.3473,0,-0.3563,-0.3574,-0.3547,-0.3553,-0.3564,-0.3543,-0.3555,-0.3545,-0.3536,-0.354,-0.3517,-0.3521,-0.3497,-0.3499,-0.3485,-0.3494,-0.3494,-0.3487,-0.3483,-0.3488,-0.3489,-0.3486,-0.3482,-0.3475,-0.3474,-0.3474,-0.3474,0,-0.3615,-0.3598,-0.3606,-0.3589,-0.3585,-0.3594,-0.358,-0.3584,-0.3572,-0.3577,-0.3577,-0.3558,-0.3558,-0.354,-0.3538,-0.3528,-0.3543,-0.3536,-0.3546,-0.3543,-0.356,-0.3558,-0.362,-0.3626,-0.3566,-0.3567,-0.3567,0,-0.3643,-0.3651,-0.3635,-0.3636,-0.363,-0.3631,-0.363,-0.3609,-0.3609,-0.3599,-0.3605,-0.3604,-0.3601,-0.3604,-0.359,-0.3587,-0.3578,-0.36,-0.3578,-0.3583,-0.3577,-0.3576,-0.3576,-0.3604,-0.3605,-0.3606,-0.3606,0,-0.3695,-0.3687,-0.3685,-0.3681,-0.368,-0.3676,-0.3671,-0.3673,-0.365,-0.3651,-0.3651,-0.3649,-0.3647,-0.3645,-0.3641,-0.3634,-0.3616,-0.3614,-0.3617,-0.3622,-0.3627,-0.3623,-0.3557,-0.3612,-0.3611,-0.3611,-0.3611,-0.361,-0.3735,-0.3741,-0.373,-0.373,-0.3724,-0.3719,-0.3722,-0.3711,-0.3711,-0.3706,-0.3695,-0.3697,-0.3688,-0.3679,-0.3674,-0.3676,-0.3665,-0.367,-0.3671,-0.3672,-0.3675,-0.3628,-0.3675,-0.3675,-0.3674,-0.3674,-0.3674,0,-0.3785,-0.3777,-0.3777,-0.377,-0.377,-0.3754,-0.3747,-0.3748,-0.375,-0.3743,-0.3741,-0.3741,-0.374,-0.3727,-0.3724,-0.3728,-0.372,-0.3728,-0.3727,-0.3725,-0.3685,-0.3682,-0.3734,-0.3734,-0.3734,-0.3734,-0.3734,-0.3734,-0.3811,-0.3819,-0.3809,-0.3814,-0.3806,-0.3808,-0.3805,-0.3801,-0.3795,-0.3796,-0.3795,-0.3787,-0.3777,-0.3773,-0.3772,-0.3768,-0.3767,-0.3778,-0.3771,-0.3734,-0.3728,-0.3722,-0.3719,-0.3778,-0.3779,-0.3811,-0.3811,-0.3811]},{"header":{"parameterUnit":"m.s-1","parameterCategory":1,"la1":30.2991,"la2":30.254,"lo1":-89.0895,"lo2":-89.0444,"dy":0.0017,"dx":0.0017,"nx":28,"ny":28,"refTime":"2024-05-24T09:00:00:Z","depth":0,"parameterNumber":3,"parameterNumberName":"V-component_of_WINDS"},"data":[0,0,0,0,0,0,0,0,0,0,0,0,0,0,0,0,0,0,0,0,0,0,0,0,0,0,0,0,0,0,0,0,0,0,0,0,0,0,0,0,0,0,0,0,0,0,0,0,0,0,0,0,0,0,0,0,0,0,3.6707,3.6707,0,3.6716,3.6716,3.6716,3.6764,3.6765,3.6766,3.6767,3.6772,3.6771,3.677,0,0,0,0,0,0,0,0,0,0,0,0,0,3.673,3.673,3.6707,3.6707,3.6707,3.6716,3.6716,3.6716,3.6764,3.6765,3.6766,3.6768,3.6773,3.6771,3.677,0,0,0,0,0,0,0,0,0,0,0,0,0,3.6728,3.673,3.6707,3.6732,3.6735,3.6716,3.6716,3.6716,3.6763,3.6765,3.6767,3.6768,3.6773,3.6772,3.677,3.6727,0,0,3.6766,3.6765,0,0,0,0,0,0,0,0,3.6728,3.6727,3.6728,3.673,3.6733,3.6741,3.6726,3.6719,3.6763,3.6752,3.6767,3.6769,3.676,3.676,3.6757,3.6727,3.6727,3.6766,3.6765,3.6764,3.6764,0,0,0,0,0,0,0,3.6728,3.6727,3.671,3.6728,3.6731,3.6743,3.6744,3.6725,3.6746,3.6753,3.6757,3.6757,3.6762,3.6759,3.6758,3.6727,3.6766,3.6764,3.6764,3.6763,3.6664,3.6663,0,0,0,0,0,0,3.6725,3.6726,3.671,3.6711,3.6735,3.6741,3.6742,3.6736,3.6747,3.675,3.6756,3.676,3.676,3.676,3.6758,3.671,3.6764,3.6763,3.6762,3.6666,3.6664,3.6662,0,0,0,0,0,0,3.6725,3.6723,3.671,3.672,3.6719,3.6739,3.6731,3.6735,3.6733,3.6749,3.6752,3.6749,3.6762,3.676,3.6735,3.6711,3.6762,3.6761,3.6668,3.6665,3.6663,3.6611,0,0,0,0,0,0,3.6726,3.6723,3.6707,3.6719,3.6718,3.6686,3.673,3.6734,3.6731,3.6735,3.6743,3.6746,3.6763,3.6737,3.6734,3.671,3.676,3.667,3.6667,3.6664,3.6615,3.6607,3.66,0,0,0,0,0,3.6726,3.669,3.6705,3.6703,3.6698,3.6685,3.6684,3.6706,3.6728,3.6712,3.6723,3.6746,3.6714,3.6734,3.6731,3.6706,3.6672,3.6668,3.6664,3.6618,3.6609,3.66,0,0,0,0,0,0,3.6672,3.6692,3.6709,3.6676,3.6679,3.6693,3.6673,3.6694,3.6689,3.6694,3.6719,3.6721,3.6692,3.6696,3.6718,3.6666,3.6697,3.6692,3.6664,3.6654,3.6647,3.6646,3.6759,0,0,0,0,0,3.6657,3.6645,3.6663,3.6632,3.6633,3.6653,3.6647,3.6664,3.6667,3.6668,3.6677,3.6678,3.6669,3.6662,3.6654,3.6616,3.662,3.6598,3.659,3.6584,3.6579,3.6562,3.6553,3.6649,3.6649,3.6649,0,0,3.6624,3.6633,3.6624,3.6621,3.6625,3.6613,3.6653,3.6637,3.6628,3.6665,3.6643,3.6649,3.6653,3.6622,3.6609,3.6625,3.6554,3.6579,3.6574,3.6573,3.6557,3.6548,3.654,3.6646,3.6647,3.6647,0,0,3.6558,3.6564,3.654,3.6544,3.655,3.6564,3.6559,3.657,3.6577,3.6555,3.6584,3.6573,3.6556,3.6558,3.6557,3.6495,3.6517,3.6492,3.6452,3.6435,3.6428,3.6421,3.64,3.6393,3.6487,3.6487,3.6487,0,3.6516,3.6499,3.6524,3.6508,3.6506,3.6542,3.6518,3.652,3.6523,3.6521,3.6539,3.6521,3.6525,3.6496,3.6482,3.6479,3.6474,3.649,3.6427,3.6421,3.6415,3.6395,3.6387,3.6484,3.6484,3.6485,3.6485,0,3.6448,3.6435,3.6415,3.6419,3.6416,3.6395,3.6418,3.6411,3.6428,3.6441,3.6419,3.6427,3.6422,3.6417,3.6432,3.6391,3.6401,3.6422,3.6455,3.6402,3.6385,3.6377,3.648,3.6481,3.6482,3.6482,0,0,3.6345,3.6367,3.6359,3.6363,3.6374,3.6364,3.6346,3.6344,3.6338,3.6339,3.6325,3.6312,3.6333,3.6332,3.6348,3.6333,3.6286,3.6358,3.6358,3.6345,3.6243,3.6227,3.6217,3.6301,3.63,3.6299,3.6243,0,3.6283,3.6255,3.6278,3.6245,3.6235,3.627,3.6255,3.626,3.6272,3.6265,3.6277,3.6268,3.6296,3.6296,3.6283,3.6295,3.6266,3.6299,3.6288,3.6288,3.6287,3.6208,3.619,3.6137,3.6236,3.6235,3.6234,0,3.6206,3.6207,3.6173,3.6189,3.6186,3.6172,3.6173,3.6165,3.6173,3.6182,3.6182,3.6204,3.6188,3.622,3.6199,3.6221,3.6218,3.6224,3.6223,3.6222,3.6257,3.6206,3.612,3.6113,3.6223,3.6224,3.6225,0,3.6136,3.6129,3.6108,3.611,3.6128,3.6118,3.6124,3.6134,3.6131,3.6132,3.6131,3.6129,3.6128,3.6126,3.6147,3.6169,3.6124,3.6157,3.6132,3.6131,3.612,3.6121,3.6033,3.6118,3.6118,3.6118,3.6118,0,3.6065,3.6043,3.6078,3.6065,3.6043,3.6071,3.6047,3.6058,3.6066,3.6056,3.6086,3.6076,3.6105,3.6098,3.6114,3.6095,3.6094,3.6102,3.6106,3.6099,3.6098,3.6098,3.6102,3.6116,3.6116,3.6117,3.6117,0,3.5982,3.6005,3.5985,3.6005,3.601,3.5992,3.6009,3.5998,3.6013,3.6001,3.5999,3.6022,3.6016,3.6038,3.6034,3.6046,3.6018,3.6028,3.6016,3.6019,3.5993,3.5996,3.5902,3.5892,3.5982,3.5981,3.5981,0,3.5935,3.592,3.5939,3.5936,3.5941,3.5935,3.5934,3.5961,3.5959,3.5968,3.5956,3.5953,3.5952,3.5941,3.5957,3.5955,3.5967,3.5934,3.5966,3.5961,3.5967,3.5968,3.5968,3.5927,3.5926,3.5925,3.5924,0,3.5849,3.5862,3.586,3.5862,3.5861,3.5863,3.5868,3.5863,3.5893,3.5889,3.5884,3.5884,3.5882,3.5879,3.5881,3.5888,3.5911,3.5915,3.5909,3.5901,3.5895,3.59,3.5998,3.5916,3.5917,3.5918,3.5918,3.5918,3.5784,3.5773,3.5786,3.5783,3.579,3.5794,3.5786,3.5801,3.5798,3.58,3.5817,3.5809,3.5819,3.5825,3.583,3.5825,3.584,3.5831,3.5829,3.5827,3.5823,3.5896,3.5825,3.5826,3.5826,3.5826,3.5826,0,3.5701,3.5711,3.5709,3.5716,3.5714,3.5738,3.5745,3.5742,3.5735,3.5744,3.5743,3.5739,3.5737,3.5754,3.5754,3.5747,3.5758,3.5746,3.5747,3.5749,3.5809,3.5814,3.5737,3.5737,3.5738,3.5738,3.5738,3.5738,3.5657,3.5641,3.5655,3.5643,3.5654,3.5648,3.565,3.5655,3.5662,3.5657,3.5656,3.5668,3.568,3.5682,3.5682,3.5687,3.5686,3.5671,3.568,3.5735,3.5744,3.5752,3.5758,3.567,3.567,3.562,3.562,3.5619]}]]